OpenBCM V1.13 (Linux)

Packet Radio Mailbox

DB0FHN

[JN59NK Nuernberg]

 Login: GUEST





  
I6KZR  > KEPLER   28.02.03 23:48l 1425 Lines 38767 Bytes #999 (0) @ WW
BID : 26151_IK6WID
Read: DB0FHN GUEST
Subj: Old Istantrak Keplerians #059
Path: DB0FHN<DB0RGB<OK0PPL<RZ6HXA<SP7MGD<ON0BEL<IK6PYS<IK6PYS<I6ZLO<IK6WID
Sent: 030228/2114Z @:IK6WID.#AP.IMAR.ITA.EU #:26151 [MONTE URANO]  FBB7.00i
From: I6KZR@IK6WID.#AP.IMAR.ITA.EU
To  : KEPLER@WW


Satellite: OSCAR 7
Catalog number: 07530
Epoch time:      103058.70983694
Element set:     164 
Inclination:      101.7595 deg
RA of node:       106.4109 deg
Eccentricity:    0.0012206
Arg of perigee:    61.4717 deg
Mean anomaly:     298.7582 deg
Mean motion:   12.53564579 rev/day
Decay rate:   -2.9000E-007 rev/day^2
Epoch rev:           29433
Checksum:              317

Satellite: GOES 2
Catalog number: 10061
Epoch time:      103051.70332233
Element set:     94 
Inclination:       14.1349 deg
RA of node:        13.4071 deg
Eccentricity:    0.0012974
Arg of perigee:   200.0160 deg
Mean anomaly:     159.9586 deg
Mean motion:    0.99400Decay rate:   -2.7900E-006 rev/day^2
Epoch rev:            3885
Checksum:              261

Satellite: GOES 3
Catalog number: 10953
Epoch time:      103057.91113481
Element set:     936 
Inclination:       13.4143 deg
RA of node:        17.1687 deg
Eccentricity:    0.0005841
Arg of perigee:   343.5850 deg
Mean anomaly:      16.4222 deg
Mean motion:    1.00279412 rev/day
Decay rate:   -1.1299E-006 rev/day^2
Epoch rev:            4358
Checksum:              275

Satellite: GOES 6
Catalog number: 14050
Epoch time:      103053.03607911
Element set:     428 
Inclination:       10.4089 deg
RA of node:        35.5299 deg
Eccentricity:    0.0004291
Arg of perigee:   343.7591 deg
Mean anomaly:      16.2875 deg
Mean motion:    1.00303949 rev/day
Decay rate:    3.0999E-007 rev/day^2
Epoch rev:           13067
Checksum:              293

Satellite: OSCAR 10
Catalog number: 14129
Epoch time:      103053.29347507
Element set:     920 
Inclination:       25.9661 deg
RA of node:       163.6642 deg
Eccentricity:    0.6025305
Arg of perigee:   329.8586 deg
Mean anomaly:       6.1874 deg
Mean motion:    2.05867335 rev/day
Decay rate:   -1.3500E-006 rev/day^2
Epoch rev:           12014
Checksum:              290

Satellite: OSCAR 11 (UoSA
Catalog number: 14781
Epoch time:     Element set:     84 
Inclination:       98.1192 deg
RA of node:        32.9499 deg
Eccentricity:    0.0009410
Arg of perigee:   173.4298 deg
Mean anomaly:     186.7037 deg
Mean motion:   14.78018465 rev/day
Decay rate:    7.2799E-006 rev/day^2
Epoch rev:            1762
Checksum:              346

Satellite: NOAA 10
Catalog number: 16969
Epoch time:      103058.94358287
Element set:     678 
Inclination:       98.7307 deg
RA of node:        53.0344 deg
Eccentricity:    0.0013460
Arg of perigee:    61.7698 deg
Mean anomaly:     298.4840 deg
Mean motion:   14.27067366 rev/day
Decay rate:    1.0300E-006 rev/day^2
Epoch rev:           85524
Checksum:              338

Satellite: GOES 7
Catalog number: 17561
Epoch time:      103058.65124050
Element set:     868 
Inclination:        7.6186 deg
RA of node:        55.4916 deg
Eccentricity:    0.0005433
Arg of perigee:   264.6569 deg
Mean anomaly:     251.9818 deg
Mean motion:    1.00255279 rev/day
Decay rate:    2.6999E-007 rev/day^2
Epoch rev:            4183
Checksum:              331

Satellite: COSMOS 1861
Catalog number: 18129
Epoch time:      103059.27799336
Element set:     206 
Inclination:       82.9261 deg
RA of node:       139.3833 deg
Eccentricity:    0.0011023
Arg of perigee:   192.5649 deg
Mean anomaly:     16Mean motion:   13.72701870 rev/day
Decay rate:    5.4999E-007 rev/day^2
Epoch rev:           78584
Checksum:              355

Satellite: EUTELSAT 1-F4 
Catalog number: 18351
Epoch time:      103057.04973204
Element set:     43 
Inclination:        7.2119 deg
RA of node:        58.6224 deg
Eccentricity:    0.0006913
Arg of perigee:   200.7899 deg
Mean anomaly:     159.3039 deg
Mean motion:    0.98686775 rev/day
Decay rate:    1.8999E-007 rev/day^2
Epoch rev:            4275
Checksum:              443

Satellite: NOAA 11
Catalog number: 19531
Epoch time:      103058.91933971
Element set:     516 
Inclination:       98.89RA of node:       140.2702 deg
Eccentricity:    0.0011769
Arg of perigee:   172.3185 deg
Mean anomaly:     187.8166 deg
Mean motion:   14.14541698 rev/day
Decay rate:    1.2399E-006 rev/day^2
Epoch rev:           74412
Checksum:              343

Satellite: ASTRA 1A
Catalog number: 19688
Epoch time:      103058.88994760
Element set:     582 
Inclination:        1.4176 deg
RA of node:        94.8821 deg
Eccentricity:    0.0004764
Arg of perigee:   241.8471 deg
Mean anomaly:     146.1255 deg
Mean motion:    1.00273413 rev/day
Decay rate:    1.5999E-007 rev/day^2
Epoch rev:            3229
Checksum:              324

Satellite: OSCAR 14 (UOCatalog number: 20437
Epoch time:      103058.65692826
Element set:     174 
Inclination:       98.2695 deg
RA of node:       101.8346 deg
Eccentricity:    0.0010660
Arg of perigee:   170.1640 deg
Mean anomaly:     189.9754 deg
Mean motion:   14.31240517 rev/day
Decay rate:    7.0999E-007 rev/day^2
Epoch rev:           68379
Checksum:              343

Satellite: OSCAR 15 (UOSA
Catalog number: 20438
Epoch time:      103058.96296514
Element set:     801 
Inclination:       98.2461 deg
RA of node:        91.2064 deg
Eccentricity:    0.0009539
Arg of perigee:   180.7612 deg
Mean anomaly:     179.3546 deg
Mean motion:   14.30200144 rev/day
Decay rate:    4.4000E-007 rev/day^2
Epoch rev:           68350
Checksum:              297

Satellite: OSCAR 16 (PACS
Catalog number: 20439
Epoch time:      103058.67034047
Element set:     858 
Inclination:       98.3155 deg
RA of node:       113.5856 deg
Eccentricity:    0.0010818
Arg of perigee:   177.0094 deg
Mean anomaly:     183.1164 deg
Mean motion:   14.31474753 rev/day
Decay rate:    6.6000E-007 rev/day^2
Epoch rev:           68383
Checksum:              317

Satellite: OSCAR 17 (DOVE
Catalog number: 20440
Epoch time:      103059.21656542
Element set:     730 
Inclination:       98.3365 deg
RA of node:       118.0242 deg
Eccentricity:    0.0010910
Arg of perigee:   174.2993 deg
Mean anomaly:     185.8315 deg
Mean motion:   14.31753389 rev/day
Decay rate:    7.4000E-007 rev/day^2
Epoch rev:           68398
Checksum:              309

Satellite: OSCAR 18 (WEBE
Catalog number: 20441
Epoch time:      103059.20977187
Element set:     22 
Inclination:       98.3314 deg
RA of node:       117.2222 deg
Eccentricity:    0.0011667
Arg of perigee:   175.4230 deg
Mean anomaly:     184.7060 deg
Mean motion:   14.31556647 rev/day
Decay rate:    8.2000E-007 rev/day^2
Epoch rev:           68396
Checksum:              295

Satellite: OSCAR 19 (LUSA
Catalog number: 20442
Epoch time:      103059.18709465
Element set:     973 
Inclination:       98.3448 deg
RA of node:       120.2420 deg
Eccentricity:    0.0011744
Arg of perigee:   174.7287 deg
Mean anomaly:     185.4017 deg
Mean motion:   14.31720081 rev/day
Decay rate:    8.6000E-007 rev/day^2
Epoch rev:           68401
Checksum:              299

Satellite: JAS 1B (FUJI 2
Catalog number: 20480
Epoch time:      103058.90057122
Element set:     477 
Inclination:       99.0475 deg
RA of node:        19.8884 deg
Eccentricity:    0.0540629
Arg of perigee:   342.7607 deg
Mean anomaly:      15.5749 deg
Mean motion:   12.83330205 rev/day
Decay rate:   -2.4999E-007 rev/day^2
Epoch rev:           61171
Checksum:              326

Satellite: HST
Catalog number: 20580
Epoch time:      103059.16228660
Element set:     342 
Inclination:       28.4706 deg
RA of node:       335.7532 deg
Eccentricity:    0.0003775
Arg of perigee:    14.7518 deg
Mean anomaly:     130.5882 deg
Mean motion:   14.97854738 rev/day
Decay rate:    1.9529E-005 rev/day^2
Epoch rev:           50407
Checksum:              314

Satellite: EUTELSAT 2-F1
Catalog number: 20777
Epoch time:      103058.86735716
Element set:     40 
Inclination:        3.5291 deg
RA of node:        84.4541 deg
Eccentricity:    0.0003426
Arg of perigee:   323.2557 deg
Mean anomaly:  Mean motion:    1.00272316 rev/day
Decay rate:   -1.1600E-006 rev/day^2
Epoch rev:            2619
Checksum:              273

Satellite: FENGYUN 1B
Catalog number: 20788
Epoch time:      103059.16720473
Element set:     892 
Inclination:       99.0271 deg
RA of node:        41.2528 deg
Eccentricity:    0.0015632
Arg of perigee:   201.5776 deg
Mean anomaly:     158.4735 deg
Mean motion:   14.02138047 rev/day
Decay rate:    1.6100E-006 rev/day^2
Epoch rev:           63888
Checksum:              305

Satellite: EUTELSAT 2-F2
Catalog number: 21056
Epoch time:      103058.89572918
Element set:     621 
Inclination:        2.752RA of node:        87.8292 deg
Eccentricity:    0.0003750
Arg of perigee:   291.4980 deg
Mean anomaly:     148.8290 deg
Mean motion:    1.00271203 rev/day
Decay rate:    1.0200E-006 rev/day^2
Epoch rev:            3197
Checksum:              282

Satellite: INFORMATOR 1
Catalog number: 21087
Epoch time:      103058.72791956
Element set:     627 
Inclination:       82.9426 deg
RA of node:       310.6249 deg
Eccentricity:    0.0033697
Arg of perigee:   223.7518 deg
Mean anomaly:     136.0961 deg
Mean motion:   13.74927495 rev/day
Decay rate:    6.5000E-007 rev/day^2
Epoch rev:           60614
Checksum:              426

Satellite: COSMCatalog number: 21089
Epoch time:      103058.85903640
Element set:     503 
Inclination:       82.9237 deg
RA of node:       174.4888 deg
Eccentricity:    0.0027591
Arg of perigee:   260.5735 deg
Mean anomaly:      99.2300 deg
Mean motion:   13.74405252 rev/day
Decay rate:    6.2999E-007 rev/day^2
Epoch rev:           60506
Checksum:              333

